Weather History for Soldotna, AK

Change the Weather History Date:

Tuesday, September 9, 2014

  Actual Average Record
Temperature  
Mean Temperature 55 °F -  
Max Temperature 60 °F 56 °F 67 °F (1965)
Min Temperature 50 °F 38 °F 23 °F (1970)
Degree Days  
Heating Degree Days 10    
Growing Degree Days 5 (Base 50)    
Moisture  
Dew Point 48 °F    
Average Humidity 84    
Maximum Humidity 94    
Minimum Humidity 63    
Precipitation  
Precipitation 0.09 in - - ()
Sea Level Pressure  
Sea Level Pressure 29.95 in    
Wind  
Wind Speed 2 mph (ENE)    
Max Wind Speed 10 mph    
Max Gust Speed -    
Visibility 10 miles    
Events      
Averages and records for this station are not official NWS values.
T = Trace of Precipitation, MM = Missing Value Source: NWS Daily Summary

Daily Weather History Graph

Daily Weather History Graph

Search for Another Location

Airport:

Trip Planner

Search our weather history database for the weather conditions in past years. The results will help you decide how hot, cold, wet, or windy it might be!

Date:

Astronomy

Sep. 09, 2014 Rise Set
Actual Time 7:17 AM AKDT 8:43 PM AKDT
Civil Twilight 6:33 AM AKDT 9:27 PM AKDT
Nautical Twilight 5:38 AM AKDT 10:21 PM AKDT
Astronomical Twilight 4:32 AM AKDT 11:26 PM AKDT
Moon 8:39 PM AKDT (9/9) 8:28 AM AKDT (9/9)
Length of Visible Light 14h 53m
Length of Day
13h 25m
Full, 99% of the Moon is Illuminated
Sep 9
Full
Sep 15
Last Quarter
Sep 23
New
Oct 1
First Quarter
Oct 8
Full

Hourly Weather History & Observations

Time (AKDT) Temp. Dew Point Humidity Pressure Visibility Wind Dir Wind Speed Gust Speed Precip Events Conditions
12:16 AM 51.8 °F 48.2 °F 88% 29.99 in 10.0 mi Calm Calm - N/A   Overcast
12:36 AM 51.8 °F 48.2 °F 88% 30.00 in 10.0 mi Calm Calm - N/A   Overcast
12:56 AM 51.8 °F 48.2 °F 88% 30.00 in 10.0 mi Calm Calm - N/A   Overcast
1:16 AM 51.8 °F 48.2 °F 88% 30.00 in 10.0 mi Calm Calm - N/A   Overcast
1:36 AM 51.8 °F 48.2 °F 88% 30.00 in 10.0 mi Calm Calm - N/A   Overcast
1:56 AM 51.8 °F 48.2 °F 88% 30.00 in 10.0 mi Calm Calm - N/A   Overcast
2:16 AM 51.8 °F 48.2 °F 88% 30.00 in 10.0 mi Calm Calm - N/A   Overcast
2:36 AM 51.8 °F 48.2 °F 88% 30.00 in 10.0 mi Calm Calm - N/A   Overcast
2:56 AM 51.8 °F 48.2 °F 88% 29.98 in 10.0 mi Calm Calm - N/A   Overcast
3:16 AM 51.8 °F 48.2 °F 88% 30.00 in 10.0 mi Calm Calm - N/A   Overcast
3:36 AM 51.8 °F 48.2 °F 88% 30.00 in 10.0 mi Calm Calm - N/A   Overcast
3:56 AM 51.8 °F 48.2 °F 88% 29.99 in 10.0 mi Calm Calm - N/A   Overcast
4:16 AM 51.8 °F 48.2 °F 88% 29.99 in 10.0 mi Calm Calm - N/A   Overcast
4:36 AM 51.8 °F 48.2 °F 88% 29.98 in 10.0 mi Calm Calm - N/A   Overcast
4:56 AM 51.8 °F 48.2 °F 88% 29.98 in 10.0 mi Calm Calm - N/A   Overcast
5:16 AM 50.0 °F 46.4 °F 87% 29.98 in 10.0 mi Calm Calm - N/A   Overcast
5:36 AM 50.0 °F 46.4 °F 87% 29.97 in 10.0 mi Calm Calm - N/A   Mostly Cloudy
5:56 AM 50.0 °F 46.4 °F 87% 29.97 in 10.0 mi Calm Calm - N/A   Overcast
6:16 AM 51.8 °F 46.4 °F 82% 29.97 in 10.0 mi Calm Calm - N/A   Overcast
6:36 AM 51.8 °F 46.4 °F 82% 29.96 in 10.0 mi Calm Calm - N/A   Overcast
6:56 AM 50.0 °F 46.4 °F 87% 29.96 in 10.0 mi Calm Calm - N/A   Scattered Clouds
7:16 AM 50.0 °F 46.4 °F 87% 29.96 in 10.0 mi Calm Calm - N/A   Clear
7:36 AM 50.0 °F 46.4 °F 87% 29.96 in 10.0 mi Calm Calm - N/A   Mostly Cloudy
7:56 AM 50.0 °F 46.4 °F 87% 29.96 in 10.0 mi West 3.5 mph - N/A   Overcast
8:16 AM 50.0 °F 46.4 °F 87% 29.96 in 10.0 mi Calm Calm - N/A   Overcast
8:36 AM 50.0 °F 46.4 °F 87% 29.96 in 10.0 mi Calm Calm - N/A   Overcast
8:56 AM 51.8 °F 48.2 °F 88% 29.95 in 10.0 mi ENE 3.5 mph - N/A   Overcast
9:16 AM 51.8 °F 48.2 °F 88% 29.95 in 10.0 mi Calm Calm - N/A   Scattered Clouds
9:36 AM 51.8 °F 48.2 °F 88% 29.95 in 10.0 mi Calm Calm - N/A   Partly Cloudy
9:56 AM 53.6 °F 48.2 °F 82% 29.95 in 10.0 mi Calm Calm - N/A   Clear
10:16 AM 53.6 °F 50.0 °F 88% 29.95 in 10.0 mi Calm Calm - N/A   Clear
10:36 AM 55.4 °F 48.2 °F 77% 29.95 in 10.0 mi Calm Calm - N/A   Clear
10:56 AM 55.4 °F 48.2 °F 77% 29.95 in 10.0 mi North 3.5 mph - N/A   Clear
11:36 AM 57.2 °F 50.0 °F 77% 29.95 in 10.0 mi NE 6.9 mph - N/A   Clear
11:56 AM 60.8 °F 48.2 °F 63% 29.94 in 10.0 mi East 9.2 mph - N/A   Clear
12:16 PM 60.8 °F 48.2 °F 63% 29.94 in 10.0 mi East 10.4 mph - N/A   Mostly Cloudy
12:36 PM 59.0 °F 48.2 °F 67% 29.94 in 10.0 mi East 9.2 mph - N/A   Overcast
1:16 PM 59.0 °F 48.2 °F 67% 29.94 in 10.0 mi East 10.4 mph - N/A   Overcast
1:36 PM 57.2 °F 48.2 °F 72% 29.94 in 10.0 mi East 10.4 mph - N/A   Overcast
1:56 PM 57.2 °F 48.2 °F 72% 29.95 in 10.0 mi East 9.2 mph - N/A   Overcast
2:16 PM 57.2 °F 48.2 °F 72% 29.95 in 10.0 mi East 9.2 mph - N/A   Overcast
2:36 PM 55.4 °F 48.2 °F 77% 29.95 in 10.0 mi East 8.1 mph - N/A   Overcast
2:56 PM 55.4 °F 48.2 °F 77% 29.95 in 10.0 mi East 6.9 mph - 0.01 in   Overcast
3:16 PM 53.6 °F 48.2 °F 82% 29.95 in 10.0 mi ENE 5.8 mph - 0.02 in   Overcast
3:36 PM 53.6 °F 50.0 °F 88% 29.95 in 10.0 mi NE 6.9 mph - 0.04 in   Overcast
3:56 PM 53.6 °F 50.0 °F 88% 29.94 in 10.0 mi ENE 9.2 mph - 0.05 in   Overcast
4:16 PM 53.6 °F 48.2 °F 82% 29.94 in 10.0 mi East 4.6 mph - N/A   Overcast
4:36 PM 53.6 °F 48.2 °F 82% 29.94 in 10.0 mi East 3.5 mph - 0.01 in   Overcast
4:56 PM 53.6 °F 48.2 °F 82% 29.94 in 10.0 mi East 4.6 mph - 0.01 in   Overcast
5:16 PM 53.6 °F 50.0 °F 88% 29.94 in 10.0 mi ENE 4.6 mph - N/A   Overcast
5:36 PM 53.6 °F 50.0 °F 88% 29.94 in 10.0 mi ENE 4.6 mph - N/A   Overcast
5:56 PM 53.6 °F 50.0 °F 88% 29.94 in 10.0 mi ENE 4.6 mph - N/A   Overcast
6:16 PM 53.6 °F 50.0 °F 88% 29.94 in 10.0 mi NE 5.8 mph - 0.01 in   Overcast
6:36 PM 53.6 °F 51.8 °F 94% 29.94 in 10.0 mi ENE 5.8 mph - 0.01 in   Overcast
6:56 PM 53.6 °F 51.8 °F 94% 29.93 in 10.0 mi NE 6.9 mph - 0.01 in   Overcast
7:16 PM 53.6 °F 51.8 °F 94% 29.93 in 10.0 mi NE 5.8 mph - N/A   Overcast
7:36 PM 53.6 °F 51.8 °F 94% 29.93 in 10.0 mi East 3.5 mph - N/A   Overcast
7:56 PM 53.6 °F 50.0 °F 88% 29.93 in 10.0 mi Calm Calm - N/A   Overcast
8:16 PM 53.6 °F 50.0 °F 88% 29.92 in 10.0 mi Calm Calm - N/A   Overcast
8:36 PM 53.6 °F 48.2 °F 82% 29.93 in 10.0 mi Calm Calm - N/A   Overcast
8:56 PM 53.6 °F 48.2 °F 82% 29.93 in 10.0 mi ENE 3.5 mph - N/A   Overcast
9:16 PM 53.6 °F 48.2 °F 82% 29.93 in 10.0 mi NE 3.5 mph - 0.01 in   Overcast
9:36 PM 53.6 °F 48.2 °F 82% 29.93 in 10.0 mi NE 3.5 mph - 0.01 in   Overcast
9:56 PM 53.6 °F 48.2 °F 82% 29.93 in 10.0 mi NE 4.6 mph - 0.01 in   Overcast
10:16 PM 53.6 °F 48.2 °F 82% 29.93 in 10.0 mi NE 3.5 mph - N/A   Overcast
10:36 PM 53.6 °F 48.2 °F 82% 29.93 in 10.0 mi NNE 3.5 mph - N/A   Overcast
10:56 PM 53.6 °F 48.2 °F 82% 29.93 in 10.0 mi NE 4.6 mph - N/A   Overcast
11:16 PM 51.8 °F 48.2 °F 88% 29.93 in 10.0 mi NNE 4.6 mph - N/A   Overcast
11:36 PM 51.8 °F 48.2 °F 88% 29.93 in 10.0 mi NNE 5.8 mph - N/A   Overcast
11:56 PM 53.6 °F 48.2 °F 82% 29.93 in 10.0 mi NNE 4.6 mph - N/A   Overcast